Hourly Data Report for July 28, 2017

CAPE RACE (AUT)
NEWFOUNDLAND

46°39'36.000" N
53°04'35.000" W
26.50 m
8401000
71800
WRA

Download Data

Hourly Data (July 2017)
Hourly Data Report for July 28, 2017
TIME
LST
Temp Definition
°C
Dew Point Definition
°C
Rel Hum Definition
%
Precip. Amount Definition
mm

Wind Dir Definition
10's deg

Wind Spd Definition
km/h
Visibility Definition
km
Stn Press Definition
kPa
Hmdx Definition


Wind Chill Definition


Weather Definition


00:30 11.4 LegendMM 100 0.0 25 22   101.18     LegendNANA
01:30 11.1 LegendMM 100 0.0 26 22   101.17     LegendNANA
02:30 10.6 LegendMM 100 0.0 25 18   101.13     LegendNANA
03:30 10.3 LegendMM 100 0.0 26 19   101.12     LegendNANA
04:30 10.2 LegendMM 100 0.0 25 17   101.14     LegendNANA
05:30 11.0 LegendMM 100 0.0 26 19   101.16     LegendNANA
06:30 12.7 LegendMM 100 0.0 26 15   101.14     LegendNANA
07:30 11.2 LegendMM 100 0.0 21 10   101.12     LegendNANA
08:30 11.0 LegendMM 100 0.0 21 10   101.12     LegendNANA
09:30 11.1 11.0 99 0.0 20 11   101.15     LegendNANA
10:30 13.1 12.1 94 0.0 21 18   101.17     LegendNANA
11:30 13.5 12.4 93 0.0 19 9   101.15     LegendNANA
12:30 13.6 12.6 94 0.0 20 8   101.12     LegendNANA
13:30 13.8 12.9 94 0.0 19 7   101.09     LegendNANA
14:30 13.0 11.8 92 0.0 17 9   101.09     LegendNANA
15:30 12.7 11.9 95 0.0 18 11   101.10     LegendNANA
16:30 12.5 12.1 97 0.0 16 7   101.05     LegendNANA
17:30 11.7 11.2 97 0.0 18 9   101.08     LegendNANA
18:30 12.1 11.7 97 0.0 15 6   101.02     LegendNANA
19:30 12.4 12.0 98 0.0 16 4   101.06     LegendNANA
20:30 12.0 11.7 98 0.0 17 6   101.10     LegendNANA
21:30 11.7 11.6 99 0.0 18 6   101.10     LegendNANA
22:30 11.8 11.7 100 0.0 20 5   101.11     LegendNANA
23:30 12.1 12.1 100 0.0 16 3   101.11     LegendNANA

Notes on Data Quality.

Legend

  • E = Estimated
  • M = Missing
  • NA = Not Available*
  • [empty] = Indicates an unobserved value
Date modified: